,,PressureMeas_1m,,PRMeasQMR101_1,,RHStat155_1m_1,,SRMeasQMS101R_1m,,TAStat155_1m_1,,GenWind_1,,GenWind_1,
2017-04-15, 00:00:06,VALID,917.149,VALID,0.0,VALID,96.104,VALID,-0.044,VALID,21.022,VALID,310.0,VALID,0.183,
2017-04-15, 00:01:06,VALID,917.155,VALID,0.0,VALID,96.239,VALID,-0.032,VALID,21.041,VALID,268.0,VALID,0.093,
2017-04-15, 00:02:06,VALID,917.177,VALID,0.0,VALID,96.447,VALID,-0.039,VALID,21.025,VALID,267.0,VALID,0.219,
2017-04-15, 00:03:06,VALID,917.195,VALID,0.0,VALID,96.649,VALID,-0.058,VALID,20.988,VALID,267.0,VALID,0.067,
2017-04-15, 00:04:06,VALID,917.195,VALID,0.0,VALID,96.857,VALID,-0.021,VALID,20.969,VALID,267.0,VALID,0.097,
2017-04-15, 00:05:06,VALID,917.196,VALID,0.0,VALID,97.016,VALID,-0.027,VALID,20.956,VALID,267.0,VALID,0.0,
2017-04-15, 00:06:06,VALID,917.188,VALID,0.0,VALID,97.115,VALID,-0.022,VALID,20.938,VALID,219.0,VALID,0.053,
2017-04-15, 00:07:06,VALID,917.18,VALID,0.0,VALID,97.096,VALID,-0.023,VALID,20.911,VALID,203.0,VALID,0.161,
2017-04-15, 00:08:06,VALID,917.173,VALID,0.0,VALID,97.022,VALID,-0.008,VALID,20.867,VALID,181.0,VALID,0.259,
2017-04-15, 00:09:06,VALID,917.179,VALID,0.0,VALID,97.13,VALID,-0.02,VALID,20.853,VALID,166.0,VALID,0.32,
2017-04-15, 00:10:06,VALID,917.172,VALID,0.0,VALID,97.195,VALID,-0.006,VALID,20.85,VALID,125.0,VALID,0.2,
2017-04-15, 00:11:06,VALID,917.169,VALID,0.0,VALID,97.005,VALID,-0.014,VALID,20.82,VALID,94.0,VALID,0.258,
2017-04-15, 00:12:06,VALID,917.164,VALID,0.0,VALID,96.742,VALID,-0.004,VALID,20.745,VALID,103.0,VALID,0.12,
2017-04-15, 00:13:07,VALID,917.16,VALID,0.0,VALID,96.615,VALID,0.0,VALID,20.7,VALID,103.0,VALID,0.044,
2017-04-15, 00:14:07,VALID,917.149,VALID,0.0,VALID,96.919,VALID,0.014,VALID,20.742,VALID,103.0,VALID,0.141,
2017-04-15, 00:15:07,VALID,917.134,VALID,0.0,VALID,97.125,VALID,-0.002,VALID,20.807,VALID,104.0,VALID,0.185,
2017-04-15, 00:16:07,VALID,917.133,VALID,0.0,VALID,97.033,VALID,-0.0,VALID,20.89,VALID,104.0,VALID,0.256,
2017-04-15, 00:17:07,VALID,917.124,VALID,0.0,VALID,96.779,VALID,0.014,VALID,20.99,VALID,104.0,VALID,0.009,
2017-04-15, 00:18:07,VALID,917.102,VALID,0.0,VALID,96.41,VALID,0.001,VALID,21.076,VALID,104.0,VALID,0.0,
2017-04-15, 00:19:07,VALID,917.076,VALID,0.0,VALID,96.023,VALID,-0.011,VALID,21.131,VALID,104.0,VALID,0.0,
2017-04-15, 00:20:07,VALID,917.062,VALID,0.0,VALID,95.447,VALID,-0.009,VALID,21.189,VALID,104.0,VALID,0.0,
2017-04-15, 00:21:07,VALID,917.053,VALID,0.0,VALID,94.898,VALID,0.007,VALID,21.258,VALID,104.0,VALID,0.0,
2017-04-15, 00:22:07,VALID,917.037,VALID,0.0,VALID,94.347,VALID,0.023,VALID,21.248,VALID,80.0,VALID,0.085,
2017-04-15, 00:23:07,VALID,917.032,VALID,0.0,VALID,94.266,VALID,0.022,VALID,21.131,VALID,50.0,VALID,0.05,
2017-04-15, 00:24:07,VALID,917.042,VALID,0.0,VALID,95.0,VALID,0.022,VALID,21.061,VALID,50.0,VALID,0.0,
2017-04-15, 00:25:07,VALID,917.049,VALID,0.0,VALID,95.248,VALID,0.019,VALID,21.047,VALID,50.0,VALID,0.0,
2017-04-15, 00:26:07,VALID,917.053,VALID,0.0,VALID,95.274,VALID,0.006,VALID,21.067,VALID,51.0,VALID,0.0,
2017-04-15, 00:27:07,VALID,917.069,VALID,0.0,VALID,95.284,VALID,0.019,VALID,21.099,VALID,49.0,VALID,0.0,
2017-04-15, 00:28:07,VALID,917.072,VALID,0.0,VALID,95.245,VALID,0.017,VALID,21.113,VALID,346.0,VALID,0.052,
2017-04-15, 00:29:07,VALID,917.09,VALID,0.0,VALID,95.017,VALID,0.008,VALID,21.13,VALID,344.0,VALID,0.0,
2017-04-15, 00:30:07,VALID,917.079,VALID,0.0,VALID,94.822,VALID,0.01,VALID,21.148,VALID,340.0,VALID,0.005,
2017-04-15, 00:31:07,VALID,917.076,VALID,0.0,VALID,94.704,VALID,0.013,VALID,21.156,VALID,322.0,VALID,0.021,
2017-04-15, 00:32:07,VALID,917.07,VALID,0.0,VALID,94.175,VALID,0.014,VALID,21.095,VALID,161.0,VALID,0.08,
2017-04-15, 00:33:07,VALID,917.072,VALID,0.0,VALID,94.125,VALID,0.024,VALID,21.002,VALID,159.0,VALID,0.016,
2017-04-15, 00:34:07,VALID,917.089,VALID,0.0,VALID,94.646,VALID,0.021,VALID,20.976,VALID,159.0,VALID,0.007,
2017-04-15, 00:35:07,VALID,917.085,VALID,0.0,VALID,94.979,VALID,0.025,VALID,20.985,VALID,177.0,VALID,0.226,
2017-04-15, 00:36:07,VALID,917.087,VALID,0.0,VALID,95.202,VALID,0.007,VALID,20.984,VALID,194.0,VALID,0.19,
2017-04-15, 00:37:07,VALID,917.086,VALID,0.0,VALID,95.545,VALID,0.004,VALID,21.002,VALID,202.0,VALID,0.359,
2017-04-15, 00:38:07,VALID,917.075,VALID,0.0,VALID,95.71,VALID,-0.001,VALID,21.025,VALID,190.0,VALID,0.302,
2017-04-15, 00:39:07,VALID,917.053,VALID,0.0,VALID,95.675,VALID,0.013,VALID,21.026,VALID,182.0,VALID,0.314,
2017-04-15, 00:40:07,VALID,917.039,VALID,0.0,VALID,95.741,VALID,-0.008,VALID,21.028,VALID,182.0,VALID,0.034,
2017-04-15, 00:41:07,VALID,917.033,VALID,0.0,VALID,95.771,VALID,-0.015,VALID,21.034,VALID,182.0,VALID,0.011,
2017-04-15, 00:42:07,VALID,917.016,VALID,0.0,VALID,95.822,VALID,0.0,VALID,21.042,VALID,182.0,VALID,0.002,
2017-04-15, 00:43:07,VALID,917.002,VALID,0.0,VALID,95.838,VALID,-0.015,VALID,21.046,VALID,175.0,VALID,0.113,
2017-04-15, 00:44:07,VALID,916.987,VALID,0.0,VALID,95.535,VALID,-0.002,VALID,21.003,VALID,151.0,VALID,0.292,
2017-04-15, 00:45:07,VALID,916.965,VALID,0.0,VALID,95.683,VALID,-0.006,VALID,20.989,VALID,130.0,VALID,0.377,
2017-04-15, 00:46:07,VALID,916.961,VALID,0.0,VALID,95.811,VALID,0.012,VALID,20.988,VALID,141.0,VALID,0.298,
2017-04-15, 00:47:07,VALID,916.942,VALID,0.0,VALID,95.926,VALID,0.003,VALID,20.992,VALID,147.0,VALID,0.286,
2017-04-15, 00:48:07,VALID,916.912,VALID,0.0,VALID,95.88,VALID,-0.009,VALID,20.991,VALID,144.0,VALID,0.489,
2017-04-15, 00:49:07,VALID,916.895,VALID,0.0,VALID,95.978,VALID,-0.004,VALID,21.0,VALID,128.0,VALID,0.612,
2017-04-15, 00:50:07,VALID,916.894,VALID,0.0,VALID,95.973,VALID,-0.013,VALID,21.017,VALID,129.0,VALID,0.432,
2017-04-15, 00:51:07,VALID,916.875,VALID,0.0,VALID,95.984,VALID,0.001,VALID,21.034,VALID,130.0,VALID,0.462,
2017-04-15, 00:52:07,VALID,916.865,VALID,0.0,VALID,95.895,VALID,0.015,VALID,21.047,VALID,127.0,VALID,0.762,
2017-04-15, 00:53:07,VALID,916.837,VALID,0.0,VALID,95.719,VALID,0.015,VALID,21.023,VALID,122.0,VALID,1.018,
2017-04-15, 00:54:07,VALID,916.81,VALID,0.0,VALID,95.885,VALID,0.018,VALID,20.977,VALID,110.0,VALID,1.233,
2017-04-15, 00:55:07,VALID,916.798,VALID,0.0,VALID,96.315,VALID,0.011,VALID,20.939,VALID,107.0,VALID,1.144,
2017-04-15, 00:56:07,VALID,916.785,VALID,0.0,VALID,96.526,VALID,-0.0,VALID,20.892,VALID,119.0,VALID,0.86,
2017-04-15, 00:57:07,VALID,916.771,VALID,0.0,VALID,96.743,VALID,0.012,VALID,20.861,VALID,134.0,VALID,0.401,
2017-04-15, 00:58:07,VALID,916.75,VALID,0.0,VALID,96.881,VALID,-0.009,VALID,20.835,VALID,143.0,VALID,0.559,
2017-04-15, 00:59:07,VALID,916.754,VALID,0.0,VALID,97.044,VALID,0.002,VALID,20.824,VALID,157.0,VALID,0.498,
2017-04-15, 01:00:07,VALID,916.744,VALID,0.0,VALID,97.146,VALID,0.002,VALID,20.814,VALID,149.0,VALID,0.326,
2017-04-15, 01:01:07,VALID,916.732,VALID,0.0,VALID,97.244,VALID,-0.006,VALID,20.817,VALID,165.0,VALID,0.162,
2017-04-15, 01:02:07,VALID,916.725,VALID,0.0,VALID,97.275,VALID,0.002,VALID,20.808,VALID,158.0,VALID,0.279,
2017-04-15, 01:03:07,VALID,916.729,VALID,0.0,VALID,97.271,VALID,0.002,VALID,20.792,VALID,128.0,VALID,0.199,
2017-04-15, 01:04:07,VALID,916.726,VALID,0.0,VALID,97.35,VALID,-0.002,VALID,20.806,VALID,109.0,VALID,0.195,
2017-04-15, 01:05:07,VALID,916.717,VALID,0.0,VALID,97.229,VALID,0.023,VALID,20.783,VALID,124.0,VALID,0.385,
2017-04-15, 01:06:07,VALID,916.711,VALID,0.0,VALID,97.262,VALID,0.002,VALID,20.782,VALID,144.0,VALID,0.682,
2017-04-15, 01:07:07,VALID,916.705,VALID,0.0,VALID,97.331,VALID,-0.03,VALID,20.789,VALID,143.0,VALID,0.872,
2017-04-15, 01:08:07,VALID,916.689,VALID,0.0,VALID,97.408,VALID,-0.03,VALID,20.782,VALID,128.0,VALID,0.814,
2017-04-15, 01:09:07,VALID,916.68,VALID,0.0,VALID,97.512,VALID,-0.037,VALID,20.78,VALID,113.0,VALID,0.706,
2017-04-15, 01:10:07,VALID,916.659,VALID,0.0,VALID,97.542,VALID,-0.026,VALID,20.77,VALID,119.0,VALID,0.436,
2017-04-15, 01:11:07,VALID,916.65,VALID,0.0,VALID,97.601,VALID,-0.04,VALID,20.764,VALID,119.0,VALID,0.423,
2017-04-15, 01:12:07,VALID,916.66,VALID,0.0,VALID,97.655,VALID,-0.017,VALID,20.766,VALID,120.0,VALID,0.129,
2017-04-15, 01:13:07,VALID,916.644,VALID,0.0,VALID,97.726,VALID,-0.028,VALID,20.783,VALID,119.0,VALID,0.021,
2017-04-15, 01:14:07,VALID,916.639,VALID,0.0,VALID,97.789,VALID,-0.028,VALID,20.804,VALID,65.0,VALID,0.136,
2017-04-15, 01:15:07,VALID,916.652,VALID,0.0,VALID,97.793,VALID,-0.015,VALID,20.811,VALID,10.0,VALID,0.106,
2017-04-15, 01:16:07,VALID,916.635,VALID,0.0,VALID,97.779,VALID,-0.007,VALID,20.812,VALID,9.0,VALID,0.095,
2017-04-15, 01:17:07,VALID,916.633,VALID,0.0,VALID,97.737,VALID,-0.008,VALID,20.802,VALID,5.0,VALID,0.104,
2017-04-15, 01:18:07,VALID,916.62,VALID,0.0,VALID,97.71,VALID,-0.028,VALID,20.798,VALID,9.0,VALID,0.117,
2017-04-15, 01:19:07,VALID,916.62,VALID,0.0,VALID,97.667,VALID,-0.032,VALID,20.795,VALID,32.0,VALID,0.411,
2017-04-15, 01:20:07,VALID,916.608,VALID,0.0,VALID,97.575,VALID,-0.02,VALID,20.771,VALID,57.0,VALID,0.618,
2017-04-15, 01:21:07,VALID,916.589,VALID,0.0,VALID,97.46,VALID,-0.009,VALID,20.731,VALID,87.0,VALID,0.847,
2017-04-15, 01:22:07,VALID,916.573,VALID,0.0,VALID,97.529,VALID,-0.009,VALID,20.725,VALID,90.0,VALID,0.829,
2017-04-15, 01:23:07,VALID,916.568,VALID,0.0,VALID,97.546,VALID,0.001,VALID,20.728,VALID,107.0,VALID,0.969,
2017-04-15, 01:24:07,VALID,916.549,VALID,0.0,VALID,97.539,VALID,0.011,VALID,20.758,VALID,108.0,VALID,0.752,
2017-04-15, 01:25:07,VALID,916.554,VALID,0.0,VALID,97.493,VALID,-0.014,VALID,20.783,VALID,112.0,VALID,0.424,
2017-04-15, 01:26:07,VALID,916.549,VALID,0.0,VALID,97.43,VALID,-0.017,VALID,20.797,VALID,123.0,VALID,0.341,
2017-04-15, 01:27:07,VALID,916.549,VALID,0.0,VALID,97.34,VALID,-0.012,VALID,20.8,VALID,124.0,VALID,0.506,
2017-04-15, 01:28:07,VALID,916.541,VALID,0.0,VALID,97.293,VALID,-0.001,VALID,20.805,VALID,131.0,VALID,0.248,
2017-04-15, 01:29:07,VALID,916.531,VALID,0.0,VALID,97.254,VALID,-0.021,VALID,20.808,VALID,162.0,VALID,0.556,
2017-04-15, 01:30:07,VALID,916.531,VALID,0.0,VALID,97.278,VALID,-0.005,VALID,20.82,VALID,166.0,VALID,0.324,
2017-04-15, 01:31:07,VALID,916.515,VALID,0.0,VALID,97.295,VALID,-0.003,VALID,20.835,VALID,171.0,VALID,0.26,
2017-04-15, 01:32:07,VALID,916.516,VALID,0.0,VALID,97.241,VALID,-0.004,VALID,20.84,VALID,158.0,VALID,0.501,
2017-04-15, 01:33:07,VALID,916.506,VALID,0.0,VALID,97.192,VALID,-0.009,VALID,20.824,VALID,135.0,VALID,0.649,
2017-04-15, 01:34:07,VALID,916.505,VALID,0.0,VALID,97.229,VALID,0.013,VALID,20.813,VALID,132.0,VALID,0.795,
2017-04-15, 01:35:07,VALID,916.483,VALID,0.0,VALID,97.298,VALID,-0.005,VALID,20.812,VALID,124.0,VALID,0.746,
2017-04-15, 01:36:07,VALID,916.477,VALID,0.0,VALID,97.365,VALID,0.019,VALID,20.806,VALID,129.0,VALID,0.6,
2017-04-15, 01:37:07,VALID,916.457,VALID,0.0,VALID,97.441,VALID,0.025,VALID,20.8,VALID,129.0,VALID,0.494,
2017-04-15, 01:38:07,VALID,916.439,VALID,0.0,VALID,97.482,VALID,0.003,VALID,20.789,VALID,139.0,VALID,0.439,
2017-04-15, 01:39:07,VALID,916.411,VALID,0.0,VALID,97.533,VALID,0.007,VALID,20.783,VALID,157.0,VALID,0.522,
2017-04-15, 01:40:07,VALID,916.395,VALID,0.0,VALID,97.626,VALID,0.006,VALID,20.787,VALID,149.0,VALID,0.383,
2017-04-15, 01:41:07,VALID,916.368,VALID,0.0,VALID,97.626,VALID,-0.011,VALID,20.773,VALID,131.0,VALID,0.373,
2017-04-15, 01:42:07,VALID,916.351,VALID,0.0,VALID,97.68,VALID,-0.007,VALID,20.769,VALID,98.0,VALID,0.303,
2017-04-15, 01:43:07,VALID,916.328,VALID,0.0,VALID,97.726,VALID,-0.012,VALID,20.768,VALID,70.0,VALID,0.523,
2017-04-15, 01:44:07,VALID,916.311,VALID,0.0,VALID,97.713,VALID,-0.011,VALID,20.755,VALID,60.0,VALID,0.385,
2017-04-15, 01:45:07,VALID,916.301,VALID,0.0,VALID,97.728,VALID,-0.013,VALID,20.747,VALID,70.0,VALID,0.373,
2017-04-15, 01:46:07,VALID,916.276,VALID,0.0,VALID,97.707,VALID,-0.024,VALID,20.731,VALID,83.0,VALID,0.352,
2017-04-15, 01:47:07,VALID,916.275,VALID,0.0,VALID,97.675,VALID,-0.009,VALID,20.72,VALID,107.0,VALID,0.424,
2017-04-15, 01:48:07,VALID,916.259,VALID,0.0,VALID,97.644,VALID,0.003,VALID,20.718,VALID,120.0,VALID,0.54,
2017-04-15, 01:49:07,VALID,916.252,VALID,0.0,VALID,97.622,VALID,-0.016,VALID,20.73,VALID,129.0,VALID,0.784,
2017-04-15, 01:50:07,VALID,916.259,VALID,0.0,VALID,97.544,VALID,-0.006,VALID,20.743,VALID,131.0,VALID,1.034,
2017-04-15, 01:51:07,VALID,916.255,VALID,0.0,VALID,97.496,VALID,-0.001,VALID,20.769,VALID,132.0,VALID,1.271,
2017-04-15, 01:52:07,VALID,916.255,VALID,0.0,VALID,97.363,VALID,0.019,VALID,20.819,VALID,132.0,VALID,1.21,
2017-04-15, 01:53:07,VALID,916.254,VALID,0.0,VALID,97.178,VALID,0.027,VALID,20.852,VALID,133.0,VALID,0.97,
2017-04-15, 01:54:07,VALID,916.247,VALID,0.0,VALID,96.984,VALID,0.022,VALID,20.876,VALID,141.0,VALID,1.03,
2017-04-15, 01:55:07,VALID,916.235,VALID,0.0,VALID,96.825,VALID,0.021,VALID,20.908,VALID,158.0,VALID,0.783,
2017-04-15, 01:56:07,VALID,916.235,VALID,0.0,VALID,96.701,VALID,0.019,VALID,20.935,VALID,156.0,VALID,1.057,
2017-04-15, 01:57:07,VALID,916.223,VALID,0.0,VALID,96.632,VALID,0.013,VALID,20.951,VALID,161.0,VALID,0.595,
2017-04-15, 01:58:07,VALID,916.223,VALID,0.0,VALID,96.631,VALID,0.02,VALID,20.955,VALID,160.0,VALID,0.669,
2017-04-15, 01:59:07,VALID,916.229,VALID,0.0,VALID,96.596,VALID,0.021,VALID,20.945,VALID,155.0,VALID,0.788,
2017-04-15, 02:00:07,VALID,916.233,VALID,0.0,VALID,96.673,VALID,0.008,VALID,20.929,VALID,160.0,VALID,0.617,
2017-04-15, 02:01:07,VALID,916.235,VALID,0.0,VALID,96.683,VALID,0.0,VALID,20.909,VALID,149.0,VALID,0.602,
2017-04-15, 02:02:07,VALID,916.24,VALID,0.0,VALID,96.721,VALID,-0.004,VALID,20.9,VALID,147.0,VALID,0.655,
2017-04-15, 02:03:07,VALID,916.245,VALID,0.0,VALID,96.633,VALID,0.01,VALID,20.885,VALID,130.0,VALID,0.748,
2017-04-15, 02:04:07,VALID,916.221,VALID,0.0,VALID,96.702,VALID,0.009,VALID,20.884,VALID,104.0,VALID,0.579,
2017-04-15, 02:05:07,VALID,916.212,VALID,0.0,VALID,96.718,VALID,0.017,VALID,20.867,VALID,100.0,VALID,0.438,
2017-04-15, 02:06:07,VALID,916.174,VALID,0.0,VALID,96.762,VALID,-0.005,VALID,20.852,VALID,127.0,VALID,0.43,
2017-04-15, 02:07:07,VALID,916.158,VALID,0.0,VALID,96.847,VALID,-0.028,VALID,20.835,VALID,152.0,VALID,0.777,
2017-04-15, 02:08:07,VALID,916.134,VALID,0.0,VALID,96.94,VALID,-0.029,VALID,20.807,VALID,158.0,VALID,0.746,
2017-04-15, 02:09:07,VALID,916.124,VALID,0.0,VALID,96.998,VALID,-0.024,VALID,20.776,VALID,139.0,VALID,0.796,
2017-04-15, 02:10:07,VALID,916.11,VALID,0.0,VALID,97.071,VALID,-0.03,VALID,20.753,VALID,119.0,VALID,0.886,
2017-04-15, 02:11:07,VALID,916.111,VALID,0.0,VALID,97.154,VALID,-0.025,VALID,20.732,VALID,107.0,VALID,1.056,
2017-04-15, 02:12:07,VALID,916.082,VALID,0.0,VALID,97.015,VALID,-0.015,VALID,20.667,VALID,83.0,VALID,1.166,
2017-04-15, 02:13:07,VALID,916.079,VALID,0.0,VALID,96.929,VALID,-0.013,VALID,20.612,VALID,70.0,VALID,0.988,
2017-04-15, 02:14:07,VALID,916.058,VALID,0.0,VALID,96.927,VALID,-0.021,VALID,20.577,VALID,75.0,VALID,0.732,
2017-04-15, 02:15:07,VALID,916.034,VALID,0.0,VALID,96.98,VALID,-0.013,VALID,20.572,VALID,89.0,VALID,0.547,
2017-04-15, 02:16:07,VALID,916.02,VALID,0.0,VALID,96.921,VALID,-0.026,VALID,20.576,VALID,116.0,VALID,0.429,
2017-04-15, 02:17:07,VALID,916.002,VALID,0.0,VALID,96.836,VALID,0.001,VALID,20.583,VALID,127.0,VALID,0.727,
2017-04-15, 02:18:07,VALID,915.995,VALID,0.0,VALID,96.732,VALID,-0.007,VALID,20.585,VALID,133.0,VALID,0.956,
2017-04-15, 02:19:07,VALID,915.992,VALID,0.0,VALID,96.669,VALID,-0.014,VALID,20.576,VALID,137.0,VALID,1.202,
2017-04-15, 02:20:07,VALID,915.99,VALID,0.0,VALID,96.683,VALID,-0.024,VALID,20.551,VALID,146.0,VALID,1.535,
2017-04-15, 02:21:07,VALID,915.984,VALID,0.0,VALID,96.987,VALID,0.005,VALID,20.55,VALID,151.0,VALID,2.066,
2017-04-15, 02:22:06,VALID,915.985,VALID,0.0,VALID,97.262,VALID,-0.001,VALID,20.563,VALID,153.0,VALID,2.041,
2017-04-15, 02:23:06,VALID,915.993,VALID,0.0,VALID,97.444,VALID,0.007,VALID,20.557,VALID,152.0,VALID,1.78,
2017-04-15, 02:24:06,VALID,915.996,VALID,0.0,VALID,97.539,VALID,-0.009,VALID,20.534,VALID,150.0,VALID,1.884,
2017-04-15, 02:25:06,VALID,915.978,VALID,0.0,VALID,97.625,VALID,0.001,VALID,20.51,VALID,151.0,VALID,1.927,
2017-04-15, 02:26:06,VALID,915.953,VALID,0.0,VALID,97.672,VALID,0.0,VALID,20.499,VALID,150.0,VALID,1.462,
2017-04-15, 02:27:06,VALID,915.944,VALID,0.0,VALID,97.728,VALID,0.008,VALID,20.49,VALID,154.0,VALID,1.473,
2017-04-15, 02:28:06,VALID,915.942,VALID,0.0,VALID,97.769,VALID,-0.005,VALID,20.477,VALID,157.0,VALID,1.772,
2017-04-15, 02:29:06,VALID,915.928,VALID,0.0,VALID,97.796,VALID,-0.006,VALID,20.472,VALID,158.0,VALID,1.571,
2017-04-15, 02:30:06,VALID,915.939,VALID,0.0,VALID,97.751,VALID,-0.003,VALID,20.452,VALID,147.0,VALID,1.303,
2017-04-15, 02:31:06,VALID,915.962,VALID,0.0,VALID,97.669,VALID,-0.005,VALID,20.427,VALID,141.0,VALID,1.529,
2017-04-15, 02:32:06,VALID,915.969,VALID,0.0,VALID,97.458,VALID,-0.0,VALID,20.392,VALID,133.0,VALID,1.694,
2017-04-15, 02:33:06,VALID,915.992,VALID,0.0,VALID,97.109,VALID,0.006,VALID,20.424,VALID,133.0,VALID,1.706,
2017-04-15, 02:34:06,VALID,916.004,VALID,0.0,VALID,96.613,VALID,0.009,VALID,20.508,VALID,135.0,VALID,1.454,
2017-04-15, 02:35:06,VALID,916.011,VALID,0.0,VALID,96.015,VALID,-0.005,VALID,20.597,VALID,139.0,VALID,1.251,
2017-04-15, 02:36:06,VALID,916.017,VALID,0.0,VALID,95.514,VALID,0.014,VALID,20.679,VALID,152.0,VALID,1.194,
2017-04-15, 02:37:06,VALID,916.013,VALID,0.0,VALID,95.347,VALID,0.019,VALID,20.741,VALID,164.0,VALID,0.749,
2017-04-15, 02:38:06,VALID,916.011,VALID,0.0,VALID,95.362,VALID,0.015,VALID,20.764,VALID,167.0,VALID,0.937,
2017-04-15, 02:39:06,VALID,916.009,VALID,0.0,VALID,95.415,VALID,0.018,VALID,20.771,VALID,159.0,VALID,0.72,
2017-04-15, 02:40:06,VALID,916.017,VALID,0.0,VALID,95.559,VALID,0.015,VALID,20.763,VALID,126.0,VALID,0.65,
2017-04-15, 02:41:06,VALID,916.028,VALID,0.0,VALID,95.632,VALID,0.007,VALID,20.738,VALID,131.0,VALID,0.577,
2017-04-15, 02:42:06,VALID,916.037,VALID,0.0,VALID,95.713,VALID,0.009,VALID,20.704,VALID,149.0,VALID,0.474,
2017-04-15, 02:43:06,VALID,916.037,VALID,0.0,VALID,95.821,VALID,0.023,VALID,20.679,VALID,173.0,VALID,0.913,
2017-04-15, 02:44:06,VALID,916.042,VALID,0.0,VALID,95.585,VALID,0.012,VALID,20.672,VALID,138.0,VALID,1.004,
2017-04-15, 02:45:06,VALID,916.033,VALID,0.0,VALID,95.319,VALID,0.012,VALID,20.697,VALID,140.0,VALID,0.781,
2017-04-15, 02:46:06,VALID,916.048,VALID,0.0,VALID,95.174,VALID,0.001,VALID,20.713,VALID,164.0,VALID,0.446,
2017-04-15, 02:47:06,VALID,916.067,VALID,0.0,VALID,95.02,VALID,0.008,VALID,20.743,VALID,149.0,VALID,0.538,
2017-04-15, 02:48:06,VALID,916.084,VALID,0.0,VALID,94.866,VALID,0.005,VALID,20.768,VALID,175.0,VALID,0.191,
2017-04-15, 02:49:06,VALID,916.091,VALID,0.0,VALID,94.899,VALID,0.002,VALID,20.775,VALID,229.0,VALID,0.235,
2017-04-15, 02:50:06,VALID,916.117,VALID,0.0,VALID,94.881,VALID,0.005,VALID,20.776,VALID,228.0,VALID,0.066,
2017-04-15, 02:51:06,VALID,916.151,VALID,0.0,VALID,95.026,VALID,0.019,VALID,20.777,VALID,246.0,VALID,0.001,
2017-04-15, 02:52:06,VALID,916.17,VALID,0.0,VALID,95.319,VALID,0.014,VALID,20.761,VALID,289.0,VALID,0.397,
2017-04-15, 02:53:06,VALID,916.177,VALID,0.0,VALID,95.614,VALID,0.022,VALID,20.718,VALID,287.0,VALID,0.146,
2017-04-15, 02:54:06,VALID,916.177,VALID,0.0,VALID,95.866,VALID,0.034,VALID,20.695,VALID,284.0,VALID,0.031,
2017-04-15, 02:55:06,VALID,916.171,VALID,0.0,VALID,95.973,VALID,0.014,VALID,20.682,VALID,274.0,VALID,0.0,
2017-04-15, 02:56:06,VALID,916.159,VALID,0.0,VALID,96.019,VALID,0.022,VALID,20.671,VALID,271.0,VALID,0.0,
2017-04-15, 02:57:06,VALID,916.157,VALID,0.0,VALID,96.048,VALID,0.011,VALID,20.653,VALID,271.0,VALID,0.0,
2017-04-15, 02:58:06,VALID,916.144,VALID,0.0,VALID,96.107,VALID,0.01,VALID,20.638,VALID,271.0,VALID,0.0,
2017-04-15, 02:59:06,VALID,916.134,VALID,0.0,VALID,96.114,VALID,0.016,VALID,20.623,VALID,319.0,VALID,0.075,
2017-04-15, 03:00:06,VALID,916.133,VALID,0.0,VALID,95.995,VALID,0.013,VALID,20.581,VALID,44.0,VALID,0.479,
2017-04-15, 03:01:06,VALID,916.137,VALID,0.0,VALID,95.916,VALID,-0.008,VALID,20.521,VALID,27.0,VALID,0.614,
2017-04-15, 03:02:06,VALID,916.139,VALID,0.0,VALID,96.151,VALID,0.005,VALID,20.509,VALID,23.0,VALID,0.611,
2017-04-15, 03:03:06,VALID,916.136,VALID,0.0,VALID,96.151,VALID,0.019,VALID,20.502,VALID,23.0,VALID,0.405,
2017-04-15, 03:04:06,VALID,916.142,VALID,0.0,VALID,96.155,VALID,0.013,VALID,20.501,VALID,23.0,VALID,0.203,
2017-04-15, 03:05:06,VALID,916.14,VALID,0.0,VALID,96.007,VALID,0.009,VALID,20.507,VALID,23.0,VALID,0.226,
2017-04-15, 03:06:06,VALID,916.166,VALID,0.0,VALID,95.865,VALID,0.017,VALID,20.512,VALID,23.0,VALID,0.175,
2017-04-15, 03:07:06,VALID,916.181,VALID,0.0,VALID,95.753,VALID,0.022,VALID,20.505,VALID,17.0,VALID,0.307,
2017-04-15, 03:08:06,VALID,916.206,VALID,0.0,VALID,95.748,VALID,0.009,VALID,20.506,VALID,11.0,VALID,0.406,
2017-04-15, 03:09:06,VALID,916.218,VALID,0.0,VALID,95.706,VALID,0.016,VALID,20.512,VALID,22.0,VALID,0.886,
2017-04-15, 03:10:06,VALID,916.233,VALID,0.0,VALID,95.873,VALID,0.035,VALID,20.48,VALID,6.0,VALID,0.564,
2017-04-15, 03:11:06,VALID,916.26,VALID,0.0,VALID,96.256,VALID,0.012,VALID,20.447,VALID,2.0,VALID,0.508,
2017-04-15, 03:12:06,VALID,916.263,VALID,0.0,VALID,96.639,VALID,0.016,VALID,20.419,VALID,18.0,VALID,0.363,
2017-04-15, 03:13:06,VALID,916.258,VALID,0.0,VALID,96.913,VALID,-0.0,VALID,20.403,VALID,58.0,VALID,0.446,
2017-04-15, 03:14:06,VALID,916.257,VALID,0.0,VALID,97.098,VALID,0.026,VALID,20.391,VALID,55.0,VALID,0.26,
2017-04-15, 03:15:06,VALID,916.246,VALID,0.0,VALID,97.242,VALID,0.023,VALID,20.378,VALID,41.0,VALID,0.336,
2017-04-15, 03:16:06,VALID,916.257,VALID,0.0,VALID,97.418,VALID,0.022,VALID,20.39,VALID,48.0,VALID,0.214,
2017-04-15, 03:17:06,VALID,916.252,VALID,0.0,VALID,97.491,VALID,0.02,VALID,20.376,VALID,55.0,VALID,0.482,
2017-04-15, 03:18:06,VALID,916.261,VALID,0.0,VALID,97.541,VALID,0.016,VALID,20.36,VALID,52.0,VALID,0.381,
2017-04-15, 03:19:06,VALID,916.269,VALID,0.0,VALID,97.578,VALID,0.013,VALID,20.341,VALID,30.0,VALID,0.454,
2017-04-15, 03:20:06,VALID,916.255,VALID,0.0,VALID,97.668,VALID,-0.008,VALID,20.342,VALID,21.0,VALID,0.316,
2017-04-15, 03:21:06,VALID,916.25,VALID,0.0,VALID,97.703,VALID,0.013,VALID,20.322,VALID,21.0,VALID,0.216,
2017-04-15, 03:22:06,VALID,916.247,VALID,0.0,VALID,97.783,VALID,0.01,VALID,20.325,VALID,2.0,VALID,0.036,
2017-04-15, 03:23:06,VALID,916.249,VALID,0.0,VALID,97.834,VALID,0.023,VALID,20.338,VALID,42.0,VALID,0.484,
2017-04-15, 03:24:06,VALID,916.246,VALID,0.0,VALID,97.838,VALID,0.024,VALID,20.333,VALID,48.0,VALID,0.639,
2017-04-15, 03:25:06,VALID,916.252,VALID,0.0,VALID,97.866,VALID,0.019,VALID,20.319,VALID,59.0,VALID,0.607,
2017-04-15, 03:26:06,VALID,916.25,VALID,0.0,VALID,97.883,VALID,0.016,VALID,20.299,VALID,42.0,VALID,0.741,
2017-04-15, 03:27:06,VALID,916.261,VALID,0.0,VALID,97.935,VALID,0.017,VALID,20.3,VALID,47.0,VALID,0.755,
2017-04-15, 03:28:06,VALID,916.254,VALID,0.0,VALID,97.984,VALID,0.006,VALID,20.301,VALID,49.0,VALID,0.792,
2017-04-15, 03:29:06,VALID,916.252,VALID,0.0,VALID,97.997,VALID,0.019,VALID,20.303,VALID,40.0,VALID,0.93,
2017-04-15, 03:30:06,VALID,916.264,VALID,0.0,VALID,98.007,VALID,0.027,VALID,20.293,VALID,36.0,VALID,0.967,
2017-04-15, 03:31:06,VALID,916.26,VALID,0.0,VALID,98.032,VALID,0.016,VALID,20.283,VALID,36.0,VALID,1.143,
2017-04-15, 03:32:06,VALID,916.258,VALID,0.0,VALID,98.099,VALID,0.011,VALID,20.31,VALID,29.0,VALID,0.618,
2017-04-15, 03:33:06,VALID,916.262,VALID,0.0,VALID,98.111,VALID,0.007,VALID,20.313,VALID,37.0,VALID,0.683,
2017-04-15, 03:34:06,VALID,916.244,VALID,0.0,VALID,98.083,VALID,0.009,VALID,20.291,VALID,32.0,VALID,0.603,
2017-04-15, 03:35:06,VALID,916.25,VALID,0.0,VALID,98.099,VALID,0.002,VALID,20.286,VALID,45.0,VALID,0.714,
2017-04-15, 03:36:06,VALID,916.227,VALID,0.0,VALID,98.112,VALID,0.004,VALID,20.268,VALID,48.0,VALID,0.577,
2017-04-15, 03:37:06,VALID,916.23,VALID,0.0,VALID,98.103,VALID,0.003,VALID,20.25,VALID,46.0,VALID,0.625,
2017-04-15, 03:38:06,VALID,916.212,VALID,0.0,VALID,98.118,VALID,0.013,VALID,20.239,VALID,50.0,VALID,0.617,
2017-04-15, 03:39:06,VALID,916.198,VALID,0.0,VALID,98.112,VALID,0.008,VALID,20.234,VALID,50.0,VALID,0.5,